Champaign, IL

11:52 AM CDT on July 17, 2019 (GMT -0500)
Univ Of Illinois-Willard

Weather History for KCMI - May, 2019

Change the Weather History Date:

Sunday, May 19, 2019

  Actual Average Record
Temperature  
Mean Temperature 67 °F 64 °F  
Max Temperature 77 °F 76 °F 95 °F (1998)
Min Temperature 56 °F 52 °F 39 °F (2002)
Degree Days  
Heating Degree Days 0 4  
Month to date heating degree days 115 110  
Since 1 July heating degree days 5878 5774  
Cooling Degree Days 2 3  
Month to date cooling degree days 30 35  
Year to date cooling degree days 33 46  
Growing Degree Days 19 (Base 50)    
Moisture  
Dew Point 60 °F    
Average Humidity 69    
Maximum Humidity 87    
Minimum Humidity 50    
Precipitation  
Precipitation 0.36 in 0.14 in 1.41 in (1998)
Month to date precipitation 2.48 2.87  
Year to date precipitation 14.62 13.48  
Sea Level Pressure  
Sea Level Pressure 29.71 in    
Wind  
Wind Speed 18 mph (SW)    
Max Wind Speed 35 mph    
Max Gust Speed 51 mph    
Visibility 8 miles    
Events Rain , Thunderstorm    
T = Trace of Precipitation, MM = Missing Value Source: NWS Daily Summary

Daily Weather History Graph

Daily Weather History Graph

Search for Another Location

Airport or City:

Astronomy

May. 19, 2019 Rise Set
Actual Time 5:34 AM CDT 8:05 PM CDT
Civil Twilight 5:03 AM CDT 8:36 PM CDT
Nautical Twilight 4:24 AM CDT 9:15 PM CDT
Astronomical Twilight 3:41 AM CDT 9:58 PM CDT
Moon 9:05 PM CDT (5/19) 6:19 AM CDT (5/19)
Length of Visible Light 15h 32m
Length of Day
14h 30m
Full, 99% of the Moon is Illuminated
May 19
Full
May 26
Last Quarter
Jun 3
New
Jun 10
First Quarter
Jun 17
Full

Hourly Weather History & Observations

Time (CDT) Temp. Dew Point Humidity Pressure Visibility Wind Dir Wind Speed Gust Speed Precip Events Conditions
12:53 AM 73.9 °F 60.1 °F 62% 29.68 in 10.0 mi South 19.6 mph 28.8 mph N/A   Overcast
1:53 AM 73.9 °F 60.1 °F 62% 29.66 in 10.0 mi South 21.9 mph 32.2 mph N/A   Overcast
2:53 AM 71.1 °F 61.0 °F 70% 29.65 in 10.0 mi South 16.1 mph - 0.00 in   Overcast
3:53 AM 70.0 °F 61.0 °F 73% 29.66 in 10.0 mi South 16.1 mph 28.8 mph 0.00 in   Mostly Cloudy
4:53 AM 68.0 °F 61.0 °F 78% 29.67 in 10.0 mi South 11.5 mph - N/A   Clear
5:53 AM 66.9 °F 61.0 °F 81% 29.68 in 10.0 mi South 15.0 mph - N/A   Scattered Clouds
6:53 AM 66.0 °F 62.1 °F 87% 29.68 in 10.0 mi South 13.8 mph - 0.00 in   Overcast
7:21 AM 66.0 °F 63.0 °F 90% 29.71 in 4.0 mi South 17.3 mph - 0.01 in Rain Light Rain
7:27 AM 66.0 °F 63.0 °F 90% 29.71 in 2.0 mi SSW 19.6 mph 29.9 mph 0.02 in Rain Light Rain
7:39 AM 64.9 °F 63.0 °F 93% 29.71 in 2.0 mi SSW 15.0 mph - 0.03 in Rain Light Rain
7:53 AM 64.9 °F 63.0 °F 93% 29.69 in 2.0 mi South 10.4 mph - 0.05 in Rain Light Rain
8:05 AM 66.0 °F 63.0 °F 90% 29.71 in 10.0 mi SSW 16.1 mph 24.2 mph 0.00 in Rain Light Rain
8:53 AM 66.9 °F 62.1 °F 84% 29.70 in 10.0 mi South 23.0 mph 32.2 mph 0.00 in   Overcast
9:26 AM 66.9 °F 63.0 °F 87% 29.72 in 10.0 mi SSW 20.7 mph 28.8 mph 0.01 in   Mostly Cloudy
9:51 AM 66.2 °F 62.6 °F 88% 29.71 in 10.0 mi South 18.4 mph 28.8 mph 0.01 in   Mostly Cloudy
9:53 AM 66.9 °F 63.0 °F 87% 29.70 in 10.0 mi SSW 19.6 mph 28.8 mph 0.01 in   Mostly Cloudy
10:53 AM 66.9 °F 62.1 °F 84% 29.70 in 10.0 mi SSW 24.2 mph 36.8 mph 0.00 in   Overcast
11:53 AM 73.0 °F 63.0 °F 71% 29.69 in 10.0 mi SW 24.2 mph 35.7 mph N/A   Scattered Clouds
12:53 PM 77.0 °F 61.0 °F 58% 29.67 in 10.0 mi SSW 23.0 mph - N/A   Scattered Clouds
1:50 PM 66.2 °F 60.8 °F 83% 29.68 in 1.8 mi West 24.2 mph 32.2 mph 0.10 in Rain , Thunderstorm Thunderstorms and Rain
1:51 PM 66.9 °F 60.1 °F 79% 29.68 in 1.2 mi West 23.0 mph 32.2 mph 0.11 in Rain , Thunderstorm Heavy Thunderstorms and Rain
2:09 PM 64.0 °F 57.9 °F 80% 29.71 in 0.8 mi SSW 17.3 mph 50.6 mph 0.18 in Rain , Thunderstorm Heavy Thunderstorms and Rain
2:14 PM 63.0 °F 60.1 °F 90% 29.70 in 2.0 mi SSW 18.4 mph 32.2 mph 0.19 in Rain , Thunderstorm Thunderstorms and Rain
2:18 PM 64.9 °F 61.0 °F 87% 29.70 in 4.0 mi SSW 19.6 mph 28.8 mph 0.19 in Rain Light Rain
2:26 PM 66.0 °F 62.1 °F 87% 29.70 in 10.0 mi SSW 19.6 mph 27.6 mph 0.19 in Thunderstorm Thunderstorm
2:41 PM 69.1 °F 63.0 °F 81% 29.69 in 10.0 mi SSW 17.3 mph 25.3 mph 0.19 in   Partly Cloudy
2:53 PM 71.1 °F 63.0 °F 75% 29.66 in 10.0 mi SSW 16.1 mph 27.6 mph 0.19 in   Clear
3:53 PM 75.9 °F 55.0 °F 48% 29.66 in 10.0 mi West 26.5 mph 39.1 mph N/A   Scattered Clouds
4:53 PM 73.9 °F 55.0 °F 52% 29.69 in 10.0 mi West 26.5 mph 35.7 mph N/A   Mostly Cloudy
5:53 PM 72.0 °F 55.0 °F 55% 29.72 in 10.0 mi WSW 17.3 mph 31.1 mph N/A   Mostly Cloudy
6:53 PM 71.1 °F 57.0 °F 61% 29.75 in 10.0 mi West 16.1 mph 25.3 mph N/A   Mostly Cloudy
7:53 PM 70.0 °F 57.0 °F 63% 29.78 in 10.0 mi West 18.4 mph 24.2 mph N/A   Overcast
8:53 PM 66.0 °F 55.9 °F 70% 29.81 in 10.0 mi WNW 21.9 mph - N/A   Mostly Cloudy
9:53 PM 62.1 °F 51.1 °F 67% 29.86 in 10.0 mi West 19.6 mph 28.8 mph N/A   Clear
10:53 PM 61.0 °F 51.1 °F 70% 29.87 in 10.0 mi West 15.0 mph - N/A   Overcast
11:53 PM 57.9 °F 48.9 °F 72% 29.90 in 10.0 mi West 11.5 mph - N/A   Clear